[[{"header":{"parameterUnit":"m.s-1","parameterCategory":1,"la1":30.2991,"la2":30.254,"lo1":-89.0895,"lo2":-89.0444,"dy":0.0017,"dx":0.0017,"nx":28,"ny":28,"refTime":"2023-08-30T03:00:00:Z","depth":0,"parameterNumber":2,"parameterNumberName":"U-component_of_WINDS"},"data":[0,0,0,0,0,0,0,0,0,0,0,0,0,0,0,0,0,0,0,0,0,0,0,0,0,0,0,0,0,0,0,0,0,0,0,0,0,0,0,0,0,0,0,0,0,0,0,0,0,0,0,0,0,0,0,0,0,0,-0.3319,-0.3319,0,-0.331,-0.331,-0.331,-0.3302,-0.3302,-0.3302,-0.3302,-0.3292,-0.3292,-0.3292,0,0,0,0,0,0,0,0,0,0,0,0,0,-0.3326,-0.3326,-0.3319,-0.3318,-0.3318,-0.331,-0.331,-0.331,-0.3302,-0.3302,-0.3302,-0.3302,-0.3292,-0.3292,-0.3292,0,0,0,0,0,0,0,0,0,0,0,0,0,-0.3321,-0.3326,-0.3319,-0.3313,-0.3313,-0.331,-0.331,-0.331,-0.3302,-0.3302,-0.3302,-0.3302,-0.3292,-0.3292,-0.3292,-0.3293,0,0,-0.3291,-0.3291,0,0,0,0,0,0,0,0,-0.3321,-0.3321,-0.3314,-0.3314,-0.3313,-0.3307,-0.3309,-0.3304,-0.3302,-0.3306,-0.3302,-0.3301,-0.3297,-0.3296,-0.3295,-0.3293,-0.3292,-0.3291,-0.3291,-0.3291,-0.3291,0,0,0,0,0,0,0,-0.3322,-0.3321,-0.3315,-0.3314,-0.3314,-0.3311,-0.331,-0.3308,-0.3303,-0.3306,-0.3305,-0.3304,-0.3297,-0.3295,-0.3295,-0.3292,-0.3291,-0.3291,-0.3291,-0.3291,-0.329,-0.329,0,0,0,0,0,0,-0.3323,-0.3321,-0.3315,-0.3315,-0.3317,-0.3311,-0.331,-0.3309,-0.3303,-0.3301,-0.3304,-0.3304,-0.3296,-0.3295,-0.3295,-0.3295,-0.3291,-0.3291,-0.329,-0.3289,-0.329,-0.329,0,0,0,0,0,0,-0.3323,-0.3323,-0.3316,-0.3318,-0.3317,-0.3311,-0.331,-0.3309,-0.3308,-0.3302,-0.33,-0.3304,-0.3296,-0.3295,-0.3293,-0.3295,-0.329,-0.329,-0.3289,-0.329,-0.329,-0.3297,0,0,0,0,0,0,-0.3323,-0.3323,-0.3324,-0.3318,-0.3317,-0.3315,-0.331,-0.3309,-0.3307,-0.3307,-0.3301,-0.33,-0.3296,-0.3294,-0.3293,-0.3294,-0.329,-0.3289,-0.3289,-0.329,-0.3297,-0.3298,-0.3298,0,0,0,0,0,-0.3324,-0.3326,-0.3324,-0.3323,-0.3318,-0.3316,-0.3315,-0.331,-0.3308,-0.3308,-0.3304,-0.33,-0.3295,-0.3294,-0.3293,-0.3294,-0.3289,-0.3289,-0.329,-0.3296,-0.3297,-0.3298,0,0,0,0,0,0,-0.3332,-0.3325,-0.3323,-0.3323,-0.332,-0.3314,-0.3315,-0.3311,-0.3309,-0.3308,-0.3302,-0.3301,-0.33,-0.3297,-0.3296,-0.3295,-0.3291,-0.3291,-0.3297,-0.3298,-0.3298,-0.3299,-0.329,0,0,0,0,0,-0.3334,-0.3333,-0.3327,-0.3328,-0.3326,-0.3321,-0.332,-0.3316,-0.3312,-0.3311,-0.3307,-0.3303,-0.33,-0.3299,-0.3296,-0.3296,-0.3294,-0.3296,-0.3297,-0.3298,-0.3298,-0.3297,-0.3298,-0.3291,-0.3291,-0.3291,0,0,-0.3338,-0.3334,-0.3334,-0.3329,-0.3327,-0.3325,-0.332,-0.3319,-0.3317,-0.3311,-0.3309,-0.3306,-0.3301,-0.33,-0.33,-0.3298,-0.3299,-0.3298,-0.3299,-0.3299,-0.3297,-0.3298,-0.3299,-0.3291,-0.3291,-0.3291,0,0,-0.3344,-0.3341,-0.3341,-0.3338,-0.3334,-0.333,-0.333,-0.3325,-0.3322,-0.3321,-0.3315,-0.3313,-0.3309,-0.3306,-0.3304,-0.3308,-0.3304,-0.3307,-0.3311,-0.331,-0.331,-0.3311,-0.3312,-0.3312,-0.3307,-0.3307,-0.3307,0,-0.3349,-0.3347,-0.3342,-0.3341,-0.3339,-0.3333,-0.3333,-0.333,-0.3325,-0.3323,-0.3321,-0.3315,-0.3312,-0.331,-0.3311,-0.3309,-0.3308,-0.3308,-0.3311,-0.3311,-0.3311,-0.3312,-0.3313,-0.3307,-0.3307,-0.3307,-0.3307,0,-0.3353,-0.3352,-0.3353,-0.3348,-0.3346,-0.3345,-0.334,-0.3338,-0.3335,-0.3331,-0.3329,-0.3324,-0.332,-0.3319,-0.3316,-0.3316,-0.3315,-0.3312,-0.3308,-0.3313,-0.3313,-0.3313,-0.3308,-0.3308,-0.3308,-0.3308,0,0,-0.3365,-0.3357,-0.3357,-0.3355,-0.3349,-0.3347,-0.3346,-0.3342,-0.3341,-0.3337,-0.3336,-0.3332,-0.3329,-0.3326,-0.3322,-0.3321,-0.3324,-0.3318,-0.3318,-0.3319,-0.3323,-0.3326,-0.3326,-0.3321,-0.3321,-0.3321,-0.3324,0,-0.337,-0.3368,-0.3363,-0.3362,-0.336,-0.3354,-0.3353,-0.3349,-0.3345,-0.3342,-0.3338,-0.3335,-0.3332,-0.333,-0.3329,-0.3324,-0.3325,-0.3324,-0.3319,-0.3319,-0.332,-0.3327,-0.3329,-0.3332,-0.3324,-0.3324,-0.3324,0,-0.3376,-0.3372,-0.3372,-0.3365,-0.3364,-0.3363,-0.3359,-0.3357,-0.3352,-0.3349,-0.3346,-0.3341,-0.3339,-0.3335,-0.3332,-0.3331,-0.3329,-0.3326,-0.3326,-0.3325,-0.3322,-0.3326,-0.3333,-0.3333,-0.3324,-0.3324,-0.3324,0,-0.3384,-0.3379,-0.3378,-0.3376,-0.3369,-0.3368,-0.3365,-0.336,-0.3357,-0.3353,-0.3352,-0.3347,-0.3345,-0.3341,-0.3335,-0.3334,-0.3332,-0.3328,-0.3329,-0.3329,-0.3329,-0.3329,-0.3335,-0.3328,-0.3328,-0.3328,-0.3328,0,-0.339,-0.3389,-0.3381,-0.338,-0.3379,-0.3373,-0.3372,-0.3368,-0.3364,-0.3362,-0.3356,-0.3354,-0.3346,-0.3343,-0.3338,-0.3335,-0.3334,-0.3332,-0.333,-0.3332,-0.3332,-0.333,-0.333,-0.3328,-0.3328,-0.3328,-0.3328,0,-0.3398,-0.3393,-0.3391,-0.3384,-0.3383,-0.3382,-0.3376,-0.3375,-0.337,-0.3368,-0.3366,-0.3359,-0.3355,-0.3349,-0.3343,-0.334,-0.3337,-0.3335,-0.3339,-0.3338,-0.3339,-0.3339,-0.3344,-0.3345,-0.3337,-0.3337,-0.3337,0,-0.3403,-0.3402,-0.3395,-0.3393,-0.3391,-0.3388,-0.3386,-0.3379,-0.3377,-0.3371,-0.337,-0.3365,-0.3361,-0.3355,-0.3349,-0.3344,-0.3342,-0.3344,-0.3341,-0.3342,-0.3341,-0.3341,-0.3341,-0.3344,-0.3344,-0.3345,-0.3345,0,-0.341,-0.3408,-0.3405,-0.3401,-0.3398,-0.3394,-0.339,-0.3389,-0.3382,-0.3379,-0.3375,-0.3372,-0.3365,-0.3361,-0.3355,-0.3351,-0.3346,-0.3346,-0.3345,-0.3347,-0.3349,-0.3348,-0.3341,-0.3345,-0.3345,-0.3345,-0.3345,-0.3345,-0.3417,-0.3416,-0.3411,-0.3407,-0.3404,-0.34,-0.3398,-0.3393,-0.339,-0.3385,-0.3381,-0.3377,-0.3371,-0.3362,-0.3358,-0.3355,-0.3353,-0.3353,-0.3353,-0.3353,-0.3353,-0.335,-0.3354,-0.3354,-0.3354,-0.3353,-0.3353,0,-0.3424,-0.342,-0.3417,-0.3412,-0.3409,-0.3405,-0.34,-0.3398,-0.3395,-0.339,-0.3386,-0.338,-0.3376,-0.3369,-0.3363,-0.3362,-0.3359,-0.336,-0.336,-0.3359,-0.3355,-0.3356,-0.3362,-0.3362,-0.3362,-0.3362,-0.3362,-0.3362,-0.3427,-0.3425,-0.3422,-0.3418,-0.3414,-0.341,-0.3407,-0.3404,-0.34,-0.3394,-0.339,-0.3386,-0.338,-0.3374,-0.3369,-0.3367,-0.3365,-0.3367,-0.3364,-0.3361,-0.336,-0.3359,-0.336,-0.3367,-0.3367,-0.3369,-0.3369,-0.3369]},{"header":{"parameterUnit":"m.s-1","parameterCategory":1,"la1":30.2991,"la2":30.254,"lo1":-89.0895,"lo2":-89.0444,"dy":0.0017,"dx":0.0017,"nx":28,"ny":28,"refTime":"2023-08-30T03:00:00:Z","depth":0,"parameterNumber":3,"parameterNumberName":"V-component_of_WINDS"},"data":[0,0,0,0,0,0,0,0,0,0,0,0,0,0,0,0,0,0,0,0,0,0,0,0,0,0,0,0,0,0,0,0,0,0,0,0,0,0,0,0,0,0,0,0,0,0,0,0,0,0,0,0,0,0,0,0,0,0,-3.6994,-3.6994,0,-3.6979,-3.6979,-3.6979,-3.6992,-3.6993,-3.6993,-3.6994,-3.6973,-3.6972,-3.6971,0,0,0,0,0,0,0,0,0,0,0,0,0,-3.703,-3.703,-3.6994,-3.6994,-3.6994,-3.6979,-3.6979,-3.6979,-3.6992,-3.6993,-3.6993,-3.6994,-3.6973,-3.6972,-3.6971,0,0,0,0,0,0,0,0,0,0,0,0,0,-3.7015,-3.7029,-3.6994,-3.6999,-3.6999,-3.6979,-3.6979,-3.6979,-3.6992,-3.6993,-3.6994,-3.6994,-3.6974,-3.6972,-3.697,-3.6944,0,0,-3.6966,-3.6965,0,0,0,0,0,0,0,0,-3.7016,-3.7013,-3.6998,-3.6998,-3.6999,-3.6989,-3.6984,-3.6967,-3.6992,-3.6994,-3.6994,-3.6995,-3.6977,-3.6975,-3.697,-3.6943,-3.6942,-3.6965,-3.6964,-3.6964,-3.6963,0,0,0,0,0,0,0,-3.7017,-3.7014,-3.6988,-3.6998,-3.6998,-3.7,-3.6999,-3.6981,-3.6981,-3.6994,-3.6995,-3.6994,-3.6977,-3.6972,-3.697,-3.6942,-3.6965,-3.6964,-3.6963,-3.6962,-3.6894,-3.6893,0,0,0,0,0,0,-3.7018,-3.7015,-3.6988,-3.6988,-3.701,-3.6999,-3.6998,-3.6991,-3.6981,-3.6981,-3.6993,-3.6994,-3.6974,-3.6972,-3.6969,-3.6939,-3.6964,-3.6962,-3.6961,-3.6895,-3.6894,-3.6893,0,0,0,0,0,0,-3.7019,-3.7015,-3.6989,-3.7002,-3.6998,-3.6998,-3.699,-3.699,-3.6985,-3.698,-3.698,-3.6988,-3.6975,-3.6972,-3.6951,-3.6939,-3.6961,-3.696,-3.6896,-3.6895,-3.6893,-3.6878,0,0,0,0,0,0,-3.702,-3.7016,-3.7006,-3.7001,-3.6998,-3.6972,-3.6989,-3.6989,-3.6983,-3.6984,-3.6975,-3.6975,-3.6975,-3.6953,-3.6949,-3.6937,-3.6959,-3.6897,-3.6895,-3.6894,-3.6879,-3.6876,-3.6873,0,0,0,0,0,-3.7021,-3.7,-3.7005,-3.7002,-3.6986,-3.6971,-3.6969,-3.6972,-3.6982,-3.6972,-3.6969,-3.6975,-3.6941,-3.6951,-3.6947,-3.6933,-3.6898,-3.6896,-3.6894,-3.6881,-3.6877,-3.6873,0,0,0,0,0,0,-3.7,-3.7,-3.7005,-3.6983,-3.6977,-3.6974,-3.6961,-3.6967,-3.6957,-3.6959,-3.6961,-3.6959,-3.6938,-3.6933,-3.6945,-3.6909,-3.6921,-3.6918,-3.6912,-3.6908,-3.6905,-3.6907,-3.6957,0,0,0,0,0,-3.6994,-3.6984,-3.6983,-3.6963,-3.696,-3.6961,-3.6955,-3.6958,-3.6951,-3.6948,-3.6944,-3.6937,-3.6925,-3.6916,-3.6904,-3.6879,-3.6878,-3.6868,-3.6865,-3.6863,-3.686,-3.6848,-3.6844,-3.6887,-3.6887,-3.6887,0,0,-3.6979,-3.6977,-3.697,-3.6959,-3.6955,-3.6944,-3.6959,-3.6945,-3.6937,-3.6946,-3.6927,-3.6924,-3.6916,-3.6894,-3.6883,-3.6889,-3.6848,-3.686,-3.6858,-3.6857,-3.6846,-3.6842,-3.6838,-3.6886,-3.6886,-3.6886,0,0,-3.6947,-3.6944,-3.6929,-3.6925,-3.6921,-3.6922,-3.6918,-3.6914,-3.6914,-3.6896,-3.6903,-3.6892,-3.6871,-3.6865,-3.686,-3.6829,-3.6834,-3.6825,-3.6809,-3.6798,-3.6794,-3.6791,-3.6781,-3.6778,-3.6822,-3.6822,-3.6822,0,-3.6928,-3.6913,-3.6919,-3.6906,-3.6902,-3.6913,-3.6897,-3.6893,-3.6883,-3.6879,-3.6887,-3.6863,-3.6857,-3.6835,-3.6828,-3.6823,-3.6819,-3.6825,-3.6795,-3.6792,-3.6789,-3.678,-3.6776,-3.6821,-3.6821,-3.6821,-3.6822,0,-3.6891,-3.688,-3.6868,-3.6863,-3.6856,-3.6842,-3.6846,-3.6839,-3.6843,-3.6844,-3.6826,-3.6821,-3.681,-3.6805,-3.6807,-3.6783,-3.6787,-3.6794,-3.6807,-3.6784,-3.6775,-3.6772,-3.682,-3.682,-3.6821,-3.6821,0,0,-3.6843,-3.6844,-3.6839,-3.6838,-3.6835,-3.6826,-3.6813,-3.6805,-3.6799,-3.6793,-3.6782,-3.6765,-3.6773,-3.6767,-3.6769,-3.6759,-3.6737,-3.6768,-3.6768,-3.6763,-3.6712,-3.6707,-3.6703,-3.6741,-3.6741,-3.674,-3.6714,0,-3.6812,-3.6791,-3.6798,-3.6776,-3.6767,-3.6779,-3.6767,-3.6764,-3.6765,-3.6756,-3.6756,-3.6745,-3.6755,-3.6752,-3.6743,-3.6742,-3.6727,-3.6744,-3.6731,-3.673,-3.6733,-3.6698,-3.6692,-3.6667,-3.671,-3.6709,-3.6709,0,-3.6771,-3.6767,-3.6746,-3.6747,-3.6744,-3.6733,-3.6728,-3.672,-3.6716,-3.6718,-3.6713,-3.6718,-3.6705,-3.6718,-3.67,-3.6712,-3.6707,-3.6706,-3.6705,-3.6703,-3.6718,-3.6697,-3.6659,-3.6656,-3.6703,-3.6704,-3.6704,0,-3.674,-3.6729,-3.6715,-3.6714,-3.6714,-3.6707,-3.6707,-3.6705,-3.6701,-3.6695,-3.6692,-3.6684,-3.668,-3.6674,-3.6677,-3.6686,-3.6659,-3.6672,-3.666,-3.666,-3.6653,-3.6653,-3.6615,-3.6649,-3.6649,-3.6649,-3.6649,0,-3.6704,-3.6691,-3.6702,-3.6693,-3.6679,-3.6687,-3.6672,-3.6673,-3.6672,-3.6663,-3.6672,-3.6664,-3.6669,-3.6661,-3.6663,-3.6649,-3.6646,-3.6647,-3.6647,-3.6646,-3.6646,-3.6643,-3.6645,-3.6648,-3.6648,-3.6648,-3.6649,0,-3.6667,-3.6673,-3.666,-3.6663,-3.6664,-3.6653,-3.6656,-3.6648,-3.6651,-3.664,-3.6638,-3.6641,-3.6633,-3.6636,-3.6625,-3.6627,-3.661,-3.6612,-3.6611,-3.6612,-3.66,-3.6602,-3.6558,-3.6553,-3.6591,-3.659,-3.659,0,-3.6643,-3.6634,-3.6638,-3.6634,-3.6634,-3.6627,-3.6624,-3.6632,-3.6628,-3.6626,-3.6618,-3.6611,-3.6606,-3.6591,-3.6592,-3.6585,-3.6588,-3.6574,-3.6587,-3.6587,-3.6589,-3.659,-3.6589,-3.657,-3.657,-3.657,-3.6569,0,-3.6602,-3.6607,-3.6602,-3.66,-3.6597,-3.6594,-3.6593,-3.6589,-3.6597,-3.6592,-3.6585,-3.6581,-3.6573,-3.6566,-3.656,-3.6559,-3.6565,-3.6566,-3.6563,-3.6561,-3.6561,-3.6562,-3.6605,-3.6566,-3.6567,-3.6567,-3.6567,-3.6567,-3.6571,-3.6565,-3.6567,-3.6563,-3.6563,-3.6562,-3.6556,-3.656,-3.6555,-3.655,-3.6555,-3.6547,-3.6546,-3.654,-3.6538,-3.6531,-3.6537,-3.6532,-3.6531,-3.6529,-3.6529,-3.6563,-3.653,-3.653,-3.653,-3.653,-3.653,0,-3.6531,-3.6535,-3.6531,-3.653,-3.6527,-3.6537,-3.6536,-3.6532,-3.6526,-3.6525,-3.6521,-3.6514,-3.6508,-3.651,-3.6505,-3.6499,-3.6502,-3.6497,-3.6498,-3.6498,-3.6523,-3.6527,-3.6495,-3.6495,-3.6495,-3.6495,-3.6495,-3.6495,-3.651,-3.65,-3.6505,-3.6496,-3.6499,-3.6493,-3.6492,-3.6491,-3.6492,-3.6484,-3.648,-3.6483,-3.6483,-3.6479,-3.6474,-3.6475,-3.6472,-3.6467,-3.6468,-3.6492,-3.6496,-3.6499,-3.6502,-3.6466,-3.6466,-3.6444,-3.6443,-3.6443]}]]